Richlands, VA

7:03 PM EST on November 21, 2017 (GMT -0500)
Tazewell County

Weather History for KJFZ - February, 2013

Change the Weather History Date:

Friday, February 1, 2013

  Actual Average (KBLF) Record (KBLF)
Temperature  
Mean Temperature 19 °F -  
Max Temperature 30 °F 43 °F 71 °F (1990)
Min Temperature 8 °F 25 °F -2 °F (1971)
Degree Days  
Heating Degree Days 46    
Moisture  
Dew Point 8 °F    
Average Humidity 71    
Maximum Humidity 100    
Minimum Humidity 49    
Precipitation  
Precipitation 0.00 in - - ()
Sea Level Pressure  
Sea Level Pressure 30.09 in    
Wind  
Wind Speed 11 mph (West)    
Max Wind Speed 25 mph    
Max Gust Speed 38 mph    
Visibility 9 miles    
Events      
Averages and records for this station are not official NWS values.
T = Trace of Precipitation, MM = Missing Value Source: NWS Daily Summary

Daily Weather History Graph

Daily Weather History Graph

Search for Another Location

Airport or City:

Trip Planner

Search our weather history database for the weather conditions in past years. The results will help you decide how hot, cold, wet, or windy it might be!

Date:

Astronomy

Feb. 01, 2013 Rise Set
Actual Time 7:29 AM EST 5:52 PM EST
Civil Twilight 7:02 AM EST 6:19 PM EST
Nautical Twilight 6:31 AM EST 6:50 PM EST
Astronomical Twilight 6:00 AM EST 7:21 PM EST
Moon 11:48 PM EST (2/1) 10:11 AM EST (2/1)
Length of Visible Light 11h 17m
Length of Day
10h 22m
Waning Gibbous, 70% of the Moon is Illuminated
Feb 1
Waning Gibbous
Feb 3
Last Quarter
Feb 10
New
Feb 17
First Quarter
Feb 25
Full

Hourly Weather History & Observations

Time (EST) Temp. Windchill Dew Point Humidity Pressure Visibility Wind Dir Wind Speed Gust Speed Precip Events Conditions
12:15 AM 30.2 °F 19.3 °F 24.8 °F 80% 29.81 in 10.0 mi WSW 15.0 mph - N/A   Clear
12:35 AM 30.2 °F 21.9 °F 24.8 °F 80% 29.81 in 10.0 mi SW 9.2 mph - N/A   Clear
12:55 AM 30.2 °F 22.6 °F 24.8 °F 80% 29.80 in 10.0 mi WSW 8.1 mph - N/A   Clear
1:15 AM 30.2 °F 21.9 °F 26.6 °F 86% 29.79 in 10.0 mi SW 9.2 mph - N/A   Clear
1:35 AM 30.2 °F 20.8 °F 26.6 °F 86% 29.78 in 8.0 mi SW 11.5 mph 21.9 mph N/A   Unknown
1:55 AM 28.4 °F 16.6 °F 28.4 °F 100% 29.78 in 6.0 mi SW 16.1 mph - N/A   Unknown
2:15 AM 28.4 °F 18.0 °F 28.4 °F 100% 29.79 in - WSW 12.7 mph - N/A   Unknown
2:35 AM 28.4 °F 19.1 °F 28.4 °F 100% 29.81 in - WSW 10.4 mph - N/A   Unknown
2:55 AM 28.4 °F 13.8 °F 28.4 °F 100% 29.82 in - WNW 25.3 mph 33.4 mph N/A   Mostly Cloudy
3:15 AM 21.2 °F 4.5 °F 21.2 °F 100% 29.87 in - NW 24.2 mph 38.0 mph N/A   Unknown
3:35 AM 19.4 °F 6.0 °F 19.4 °F 100% 29.88 in - WNW 13.8 mph - N/A   Unknown
3:55 AM 19.4 °F 5.5 °F 19.4 °F 100% 29.91 in - NW 15.0 mph - N/A   Unknown
4:15 AM 17.6 °F 3.7 °F 17.6 °F 100% 29.92 in 1.8 mi WNW 13.8 mph 23.0 mph N/A   Clear
4:35 AM 17.6 °F 0.5 °F 15.8 °F 93% 29.93 in 1.8 mi WNW 21.9 mph - N/A   Unknown
4:55 AM 15.8 °F -1.1 °F 15.8 °F 100% 29.95 in 1.2 mi WNW 19.6 mph 28.8 mph N/A   Unknown
5:15 AM 15.8 °F -2.3 °F 12.2 °F 86% 29.96 in 1.0 mi West 23.0 mph - N/A   Unknown
5:35 AM 15.8 °F 0.3 °F 8.6 °F 73% 29.98 in 6.0 mi West 16.1 mph 26.5 mph N/A   Partly Cloudy
5:55 AM 14.0 °F 1.2 °F 12.2 °F 93% 30.01 in - West 10.4 mph - N/A   Unknown
6:15 AM 12.2 °F -1.8 °F 12.2 °F 100% 30.01 in - WNW 11.5 mph - N/A   Unknown
6:35 AM 12.2 °F -1.0 °F 10.4 °F 92% 30.03 in 2.5 mi West 10.4 mph - N/A   Partly Cloudy
6:55 AM 12.2 °F -4.8 °F 8.6 °F 85% 30.06 in 4.0 mi West 17.3 mph 28.8 mph N/A   Unknown
7:15 AM 10.4 °F -5.4 °F 3.2 °F 73% 30.06 in 4.0 mi West 13.8 mph 27.6 mph N/A   Unknown
7:35 AM 10.4 °F -2.4 °F 3.2 °F 73% 30.07 in 9.0 mi West 9.2 mph - N/A   Partly Cloudy
7:55 AM 8.6 °F -7.0 °F 3.2 °F 79% 30.09 in 10.0 mi West 12.7 mph - N/A   Scattered Clouds
8:15 AM 8.6 °F -7.7 °F 3.2 °F 79% 30.11 in 10.0 mi WNW 13.8 mph - N/A   Partly Cloudy
8:35 AM 8.6 °F -5.5 °F 3.2 °F 79% 30.12 in 10.0 mi West 10.4 mph - N/A   Partly Cloudy
8:55 AM 8.6 °F -5.5 °F 3.2 °F 79% 30.13 in 10.0 mi West 10.4 mph - N/A   Unknown
9:15 AM 10.4 °F -4.1 °F 1.4 °F 67% 30.15 in 10.0 mi West 11.5 mph - N/A   Unknown
9:35 AM 10.4 °F -4.1 °F 1.4 °F 67% 30.14 in 10.0 mi West 11.5 mph - N/A   Unknown
9:55 AM 8.6 °F -7.0 °F 1.4 °F 73% 30.15 in 9.0 mi West 12.7 mph - N/A   Unknown
10:15 AM 10.4 °F -0.4 °F 1.4 °F 67% 30.17 in 10.0 mi West 6.9 mph - N/A   Partly Cloudy
10:35 AM 10.4 °F -6.0 °F 3.2 °F 73% 30.17 in 10.0 mi West 15.0 mph - N/A   Partly Cloudy
10:55 AM 10.4 °F -0.4 °F 1.4 °F 67% 30.19 in 10.0 mi West 6.9 mph - N/A   Partly Cloudy
11:15 AM 12.2 °F -2.5 °F 1.4 °F 62% 30.19 in 10.0 mi West 12.7 mph - N/A   Partly Cloudy
11:35 AM 12.2 °F -0.2 °F 1.4 °F 62% 30.19 in 10.0 mi West 9.2 mph - N/A   Clear
11:55 AM 14.0 °F 2.0 °F 1.4 °F 57% 30.20 in 10.0 mi WNW 9.2 mph - N/A   Clear
12:15 PM 14.0 °F 6.5 °F 3.2 °F 62% 30.20 in 10.0 mi WNW 4.6 mph - N/A   Clear
12:55 PM 15.8 °F 3.4 °F 3.2 °F 58% 30.19 in 10.0 mi West 10.4 mph - N/A   Scattered Clouds
1:15 PM 17.6 °F 8.2 °F 3.2 °F 53% 30.19 in 10.0 mi Variable 6.9 mph - N/A   Partly Cloudy
1:35 PM 17.6 °F 5.7 °F 3.2 °F 53% 30.18 in 10.0 mi West 10.4 mph - N/A   Partly Cloudy
1:55 PM 17.6 °F 7.3 °F 3.2 °F 53% 30.18 in 10.0 mi WNW 8.1 mph - N/A   Partly Cloudy
2:15 PM 17.6 °F 5.7 °F 3.2 °F 53% 30.19 in 10.0 mi West 10.4 mph - N/A   Clear
2:35 PM 17.6 °F 5.0 °F 3.2 °F 53% 30.19 in 10.0 mi WNW 11.5 mph - N/A   Clear
3:15 PM 19.4 °F 8.6 °F 3.2 °F 49% 30.18 in 10.0 mi WSW 9.2 mph - N/A   Partly Cloudy
3:35 PM 19.4 °F 8.6 °F 3.2 °F 49% 30.19 in 10.0 mi WNW 9.2 mph - N/A   Clear
3:55 PM 19.4 °F 8.6 °F 3.2 °F 49% 30.19 in 10.0 mi West 9.2 mph - N/A   Clear
4:15 PM 19.4 °F 6.6 °F 3.2 °F 49% 30.18 in 10.0 mi West 12.7 mph - N/A   Clear
4:35 PM 19.4 °F 9.5 °F 3.2 °F 49% 30.19 in 10.0 mi West 8.1 mph - N/A   Clear
4:55 PM 19.4 °F 10.4 °F 3.2 °F 49% 30.20 in 10.0 mi WNW 6.9 mph - N/A   Clear
5:15 PM 17.6 °F 7.3 °F 3.2 °F 53% 30.18 in 10.0 mi WNW 8.1 mph - N/A   Clear
5:35 PM 17.6 °F 7.3 °F 3.2 °F 53% 30.20 in 10.0 mi WNW 8.1 mph - N/A   Clear
5:55 PM 15.8 °F 8.6 °F 3.2 °F 58% 30.20 in 10.0 mi West 4.6 mph - N/A   Clear
6:15 PM 15.8 °F 10.2 °F 3.2 °F 58% 30.19 in 10.0 mi NW 3.5 mph - N/A   Clear
6:35 PM 15.8 °F 8.6 °F 3.2 °F 58% 30.20 in 10.0 mi West 4.6 mph - N/A   Clear
6:55 PM 15.8 °F 8.6 °F 3.2 °F 58% 30.20 in 10.0 mi West 4.6 mph - N/A   Clear
7:15 PM 15.8 °F 8.6 °F 3.2 °F 58% 30.21 in 10.0 mi WNW 4.6 mph - N/A   Clear
7:35 PM 15.8 °F 8.6 °F 3.2 °F 58% 30.23 in 10.0 mi West 4.6 mph - N/A   Clear
7:55 PM 14.0 °F 6.5 °F 3.2 °F 62% 30.23 in 10.0 mi West 4.6 mph - N/A   Clear
8:15 PM 14.0 °F 6.5 °F 3.2 °F 62% 30.23 in 10.0 mi West 4.6 mph - N/A   Clear
8:35 PM 14.0 °F 5.1 °F 3.2 °F 62% 30.24 in 10.0 mi West 5.8 mph - N/A   Clear
8:55 PM 14.0 °F 5.1 °F 3.2 °F 62% 30.23 in 10.0 mi Variable 5.8 mph - N/A   Clear
9:15 PM 14.0 °F 6.5 °F 3.2 °F 62% 30.24 in 10.0 mi West 4.6 mph - N/A   Clear
9:35 PM 14.0 °F 6.5 °F 3.2 °F 62% 30.24 in 10.0 mi West 4.6 mph - N/A   Clear
9:55 PM 12.2 °F - 3.2 °F 67% 30.23 in 10.0 mi Calm Calm - N/A   Clear
10:15 PM 14.0 °F 8.2 °F 3.2 °F 62% 30.24 in 10.0 mi West 3.5 mph - N/A   Clear
10:35 PM 12.2 °F - 3.2 °F 67% 30.23 in 10.0 mi Calm Calm - N/A   Clear
10:55 PM 12.2 °F - 3.2 °F 67% 30.22 in 10.0 mi Calm Calm - N/A   Clear
11:55 PM 12.2 °F - 3.2 °F 67% 30.21 in 10.0 mi Calm Calm - N/A   Clear